Simultaneous Nadir Overpasses (SNOs) Predictions

Prediction of SNOs between LANDSAT-8 and TERRA Satellite Orbit:

Table of predicted SNOs for the next 14.0 days since TLE Epoch: 7/20/2024
Index Date (LANDSAT-8) Time (LANDSAT-8) Lat,Lon (LANDSAT-8) SZA (LANDSAT-8 ) Date (TERRA) Time (TERRA) Lat,Lon (TERRA) SZA (TERRA ) Distance(km) Time Diff (sec)
1 07/27/2024 18:31:06 -81.76, 152.05 111.86 07/27/2024 18:32:17 -81.75, 152.15 111.81 1.68 71
2 07/27/2024 19:20:33 81.76, -40.49 68.13 07/27/2024 19:21:39 81.76, -40.49 68.17 0.17 66
3 07/27/2024 20:09:59 -81.76, 127.36 111.84 07/27/2024 20:10:59 -81.75, 127.39 111.80 0.56 60
4 07/27/2024 20:59:26 81.76, -65.18 68.15 07/27/2024 21:00:21 81.76, -65.25 68.17 1.24 55
5 07/27/2024 21:48:52 -81.76, 102.68 111.82 07/27/2024 21:49:41 -81.76, 102.64 111.79 0.60 49
6 07/27/2024 22:38:17 81.75, -89.44 68.23 07/27/2024 22:39:01 81.75, -89.59 68.23 2.32 44
7 07/27/2024 23:27:44 -81.76, 77.99 111.80 07/27/2024 23:28:22 -81.76, 77.88 111.79 1.72 38
8 07/28/2024 00:17:11 81.76,-114.55 68.19 07/28/2024 00:17:43 81.76,-114.34 68.24 3.38 32
9 07/28/2024 01:06:37 -81.76, 53.30 111.78 07/28/2024 01:07:04 -81.76, 53.13 111.78 2.86 27
10 07/28/2024 01:56:03 81.75,-138.82 68.27 07/28/2024 01:56:24 81.74,-138.69 68.29 2.29 21
11 07/28/2024 02:45:30 -81.75, 28.61 111.76 07/28/2024 02:45:45 -81.75, 28.78 111.73 2.80 15
12 07/28/2024 03:34:56 81.75,-163.51 68.29 07/28/2024 03:35:06 81.75,-163.44 68.30 1.16 10
13 07/28/2024 04:24:23 -81.75, 3.92 111.74 07/28/2024 04:24:27 -81.75, 4.03 111.72 1.70 4
14 07/28/2024 05:13:49 81.75, 171.80 68.31 07/28/2024 05:13:48 81.75, 171.80 68.31 0.03 1
15 07/28/2024 06:03:15 -81.75, -20.35 111.66 07/28/2024 06:03:08 -81.74, -20.32 111.66 0.66 7
16 07/28/2024 06:52:42 81.75, 147.11 68.33 07/28/2024 06:52:30 81.75, 147.05 68.31 1.10 12
17 07/28/2024 07:42:08 -81.75, -45.04 111.64 07/28/2024 07:41:50 -81.75, -45.07 111.66 0.57 18
18 07/28/2024 08:31:34 81.74, 122.84 68.40 07/28/2024 08:31:11 81.74, 122.70 68.37 2.23 23
19 07/28/2024 09:21:01 -81.74, -69.73 111.62 07/28/2024 09:20:32 -81.75, -69.83 111.65 1.68 29
20 07/28/2024 10:10:27 81.74, 98.15 68.42 07/28/2024 10:09:53 81.74, 97.94 68.37 3.32 34
21 07/28/2024 10:59:54 -81.74, -94.42 111.60 07/28/2024 10:59:14 -81.75, -94.59 111.65 2.81 40
22 07/28/2024 11:49:21 81.75, 73.04 68.39 07/28/2024 11:48:35 81.75, 73.19 68.38 2.38 46
23 07/28/2024 12:38:47 -81.74,-119.11 111.58 07/28/2024 12:37:55 -81.74,-118.93 111.59 2.83 52
24 07/28/2024 13:28:13 81.74, 48.77 68.46 07/28/2024 13:27:16 81.73, 48.84 68.44 1.26 57
25 07/28/2024 14:17:40 -81.74,-143.80 111.56 07/28/2024 14:16:37 -81.74,-143.69 111.58 1.72 63
26 07/28/2024 15:07:06 81.74, 24.08 68.48 07/28/2024 15:05:58 81.74, 24.09 68.44 0.13 68



Historial Predications of SNOs between LANDSAT-8 and TERRA
